Location: Augustenthal
(51.7167°N, 10.2833°E)
Time: 20:40:48
(UTC+00:00)

ERS-1 Rocket - Pass Details

Date: 18 May 2021
Orbit: 753 x 757 km, 98.4° (Epoch: 24 June)

Event Time Altitude Azimuth Distance (km) Brightness Sun altitude
Exits shadow 20:49:05 14° 166° (SSE) 2,012 4.6 -11.7°
Maximum altitude 20:53:27 84° 254° (WSW) 768 3.0 -12.1°
Drops below altitude 10° 20:58:31 10° 344° (NNW) 2,297 6.8 -12.5°
Sets 21:00:50 0° 345° (NNW) 3,228 7.8 -12.7°
